[[{"header":{"parameterUnit":"m.s-1","parameterCategory":1,"la1":30.2991,"la2":30.254,"lo1":-89.0895,"lo2":-89.0444,"dy":0.0017,"dx":0.0017,"nx":28,"ny":28,"refTime":"2025-09-01T09:00:00:Z","depth":0,"parameterNumber":2,"parameterNumberName":"U-component_of_WINDS"},"data":[0,0,0,0,0,0,0,0,0,0,0,0,0,0,0,0,0,0,0,0,0,0,0,0,0,0,0,0,0,0,0,0,0,0,0,0,0,0,0,0,0,0,0,0,0,0,0,0,0,0,0,0,0,0,0,0,0,0,-0.5592,-0.5593,0,-0.5674,-0.5675,-0.5676,-0.5687,-0.5686,-0.5685,-0.5684,-0.5772,-0.5775,-0.5778,0,0,0,0,0,0,0,0,0,0,0,0,0,-0.5447,-0.545,-0.5592,-0.5593,-0.5594,-0.5674,-0.5675,-0.5676,-0.5687,-0.5686,-0.5685,-0.5684,-0.5771,-0.5774,-0.5778,0,0,0,0,0,0,0,0,0,0,0,0,0,-0.5518,-0.545,-0.5592,-0.5609,-0.5611,-0.5673,-0.5675,-0.5676,-0.5687,-0.5686,-0.5685,-0.5683,-0.5769,-0.5774,-0.5778,-0.583,0,0,-0.5792,-0.5794,0,0,0,0,0,0,0,0,-0.5514,-0.5523,-0.5605,-0.5608,-0.561,-0.5669,-0.5656,-0.5728,-0.5687,-0.5658,-0.5684,-0.5683,-0.5739,-0.5746,-0.5764,-0.5834,-0.5838,-0.5793,-0.5796,-0.5798,-0.5799,0,0,0,0,0,0,0,-0.5509,-0.552,-0.5624,-0.5606,-0.561,-0.5613,-0.5622,-0.567,-0.5704,-0.5661,-0.5662,-0.5671,-0.574,-0.5759,-0.5766,-0.584,-0.5793,-0.5797,-0.58,-0.5801,-0.5958,-0.5959,0,0,0,0,0,0,-0.55,-0.5515,-0.5622,-0.5627,-0.5558,-0.5617,-0.5626,-0.5651,-0.5704,-0.571,-0.5672,-0.5671,-0.5752,-0.576,-0.5769,-0.5834,-0.5798,-0.5802,-0.5804,-0.5956,-0.5958,-0.5959,0,0,0,0,0,0,-0.5497,-0.551,-0.5618,-0.5571,-0.5585,-0.562,-0.5648,-0.5653,-0.5673,-0.5712,-0.5719,-0.5685,-0.5751,-0.5762,-0.5815,-0.5837,-0.5804,-0.5808,-0.5955,-0.5957,-0.5959,-0.5964,0,0,0,0,0,0,-0.5493,-0.5508,-0.5528,-0.5572,-0.5588,-0.5662,-0.5649,-0.5656,-0.568,-0.568,-0.5726,-0.5733,-0.5751,-0.5808,-0.5819,-0.5843,-0.5812,-0.5953,-0.5956,-0.5958,-0.5962,-0.5966,-0.5969,0,0,0,0,0,-0.5488,-0.5527,-0.5529,-0.5542,-0.5613,-0.5663,-0.5673,-0.5692,-0.5682,-0.5703,-0.5728,-0.5731,-0.5832,-0.5813,-0.5826,-0.5851,-0.5952,-0.5955,-0.5958,-0.596,-0.5965,-0.5969,0,0,0,0,0,0,-0.5486,-0.5533,-0.5536,-0.559,-0.5622,-0.5665,-0.5692,-0.5697,-0.5734,-0.5732,-0.5756,-0.5766,-0.5817,-0.584,-0.5817,-0.5905,-0.5891,-0.5897,-0.5889,-0.5894,-0.5897,-0.5891,-0.5815,0,0,0,0,0,-0.5492,-0.5528,-0.5567,-0.5611,-0.5627,-0.5656,-0.5679,-0.5691,-0.5726,-0.5741,-0.577,-0.5804,-0.5844,-0.587,-0.5908,-0.5965,-0.5975,-0.5988,-0.5992,-0.5995,-0.6,-0.6032,-0.6039,-0.597,-0.597,-0.597,0,0,-0.5505,-0.5535,-0.5556,-0.5612,-0.5638,-0.5676,-0.5668,-0.5709,-0.5737,-0.5747,-0.5798,-0.5821,-0.5861,-0.5916,-0.5941,-0.5936,-0.6021,-0.5999,-0.6001,-0.6005,-0.6036,-0.6043,-0.6048,-0.5972,-0.5972,-0.5971,0,0,-0.5548,-0.5573,-0.5613,-0.5639,-0.5679,-0.5698,-0.5708,-0.575,-0.5765,-0.5816,-0.5824,-0.5859,-0.5926,-0.5955,-0.5978,-0.6031,-0.6036,-0.6043,-0.6063,-0.6094,-0.6099,-0.6104,-0.6124,-0.6131,-0.6048,-0.6048,-0.6048,0,-0.5559,-0.5615,-0.5633,-0.5673,-0.5698,-0.5707,-0.5748,-0.5773,-0.5824,-0.5841,-0.5834,-0.5918,-0.5946,-0.6008,-0.6021,-0.6039,-0.6051,-0.6039,-0.6097,-0.6102,-0.6107,-0.6126,-0.6133,-0.6048,-0.6048,-0.6048,-0.6048,0,-0.5628,-0.5667,-0.5694,-0.5742,-0.5769,-0.581,-0.5834,-0.586,-0.5869,-0.5889,-0.5942,-0.5975,-0.6021,-0.6036,-0.6046,-0.61,-0.6095,-0.6092,-0.6079,-0.6114,-0.6132,-0.614,-0.6049,-0.6049,-0.6049,-0.6049,0,0,-0.5674,-0.573,-0.574,-0.5761,-0.5806,-0.5837,-0.5877,-0.5921,-0.5943,-0.5977,-0.6013,-0.607,-0.6067,-0.6093,-0.6106,-0.6133,-0.6174,-0.6127,-0.6128,-0.6136,-0.6236,-0.6239,-0.6247,-0.6177,-0.6178,-0.6179,-0.6233,0,-0.5723,-0.5795,-0.5812,-0.5874,-0.5911,-0.5919,-0.5955,-0.5986,-0.6006,-0.6041,-0.6063,-0.6103,-0.6095,-0.6111,-0.6138,-0.6163,-0.6195,-0.6159,-0.6212,-0.6213,-0.6203,-0.6257,-0.626,-0.6309,-0.624,-0.6241,-0.6242,0,-0.579,-0.5825,-0.589,-0.5929,-0.5946,-0.5977,-0.6019,-0.6051,-0.6087,-0.6099,-0.6128,-0.6138,-0.6182,-0.6166,-0.6227,-0.6203,-0.6225,-0.624,-0.6243,-0.625,-0.6231,-0.6266,-0.6325,-0.6333,-0.6254,-0.6253,-0.6252,0,-0.5818,-0.5881,-0.5929,-0.5947,-0.5994,-0.6016,-0.6037,-0.6071,-0.6096,-0.6132,-0.6149,-0.619,-0.6213,-0.6245,-0.6266,-0.6252,-0.6326,-0.6311,-0.6339,-0.6338,-0.6355,-0.6354,-0.642,-0.6367,-0.6367,-0.6367,-0.6367,0,-0.5872,-0.5912,-0.5942,-0.5972,-0.6017,-0.6036,-0.6081,-0.6102,-0.6132,-0.6167,-0.6176,-0.6209,-0.6234,-0.627,-0.6287,-0.6335,-0.6345,-0.6357,-0.6362,-0.6358,-0.6356,-0.6374,-0.6371,-0.6369,-0.6368,-0.6368,-0.6368,0,-0.5912,-0.5934,-0.5986,-0.6026,-0.6036,-0.6068,-0.6102,-0.6132,-0.6151,-0.6194,-0.6205,-0.6236,-0.6279,-0.6302,-0.6356,-0.6368,-0.6422,-0.6424,-0.641,-0.6412,-0.6439,-0.6436,-0.6519,-0.6532,-0.6469,-0.647,-0.647,0,-0.5946,-0.5977,-0.6019,-0.6042,-0.6063,-0.61,-0.6125,-0.6145,-0.6171,-0.6214,-0.6238,-0.6281,-0.6317,-0.6385,-0.6412,-0.6454,-0.6458,-0.6484,-0.6464,-0.6459,-0.646,-0.6458,-0.6462,-0.6488,-0.6488,-0.6489,-0.6489,0,-0.6004,-0.6013,-0.6048,-0.6087,-0.6117,-0.6149,-0.618,-0.6199,-0.6224,-0.6253,-0.6296,-0.6323,-0.6378,-0.6421,-0.6464,-0.6487,-0.6493,-0.6495,-0.6503,-0.65,-0.6491,-0.6498,-0.6421,-0.6493,-0.6493,-0.6492,-0.6492,-0.6492,-0.6043,-0.6071,-0.6105,-0.6144,-0.617,-0.6199,-0.6228,-0.625,-0.6286,-0.6332,-0.6341,-0.6387,-0.6422,-0.648,-0.6504,-0.6541,-0.6536,-0.6548,-0.6552,-0.6555,-0.6557,-0.6484,-0.6548,-0.6548,-0.6548,-0.6548,-0.6548,0,-0.6103,-0.6125,-0.616,-0.6204,-0.6235,-0.6235,-0.627,-0.6297,-0.6336,-0.6368,-0.6402,-0.6452,-0.6493,-0.6524,-0.6566,-0.659,-0.6594,-0.6601,-0.66,-0.6605,-0.6558,-0.6547,-0.6597,-0.6597,-0.6597,-0.6597,-0.6597,-0.6597,-0.6138,-0.6185,-0.6198,-0.6259,-0.628,-0.6324,-0.6344,-0.6372,-0.6397,-0.6452,-0.6486,-0.6504,-0.6536,-0.6581,-0.6619,-0.6627,-0.6643,-0.6649,-0.6658,-0.6614,-0.6608,-0.6604,-0.6593,-0.6652,-0.6652,-0.6702,-0.6703,-0.6703]},{"header":{"parameterUnit":"m.s-1","parameterCategory":1,"la1":30.2991,"la2":30.254,"lo1":-89.0895,"lo2":-89.0444,"dy":0.0017,"dx":0.0017,"nx":28,"ny":28,"refTime":"2025-09-01T09:00:00:Z","depth":0,"parameterNumber":3,"parameterNumberName":"V-component_of_WINDS"},"data":[0,0,0,0,0,0,0,0,0,0,0,0,0,0,0,0,0,0,0,0,0,0,0,0,0,0,0,0,0,0,0,0,0,0,0,0,0,0,0,0,0,0,0,0,0,0,0,0,0,0,0,0,0,0,0,0,0,0,1.7055,1.7056,0,1.7072,1.7072,1.7072,1.7028,1.7027,1.7026,1.7024,1.7042,1.7043,1.7045,0,0,0,0,0,0,0,0,0,0,0,0,0,1.6985,1.6986,1.7055,1.7056,1.7056,1.7072,1.7072,1.7072,1.7029,1.7027,1.7025,1.7024,1.7041,1.7043,1.7045,0,0,0,0,0,0,0,0,0,0,0,0,0,1.701,1.6987,1.7055,1.7036,1.7034,1.7072,1.7072,1.7072,1.7029,1.7027,1.7025,1.7023,1.704,1.7043,1.7045,1.7103,0,0,1.7053,1.7054,0,0,0,0,0,0,0,0,1.7009,1.7013,1.7039,1.7037,1.7036,1.7046,1.7053,1.7083,1.7029,1.7031,1.7024,1.7022,1.7045,1.7047,1.7054,1.7103,1.7104,1.7054,1.7055,1.7056,1.7057,0,0,0,0,0,0,0,1.7007,1.7012,1.7062,1.7039,1.7037,1.7026,1.7027,1.7059,1.7049,1.7031,1.7028,1.703,1.7043,1.7052,1.7055,1.7104,1.7053,1.7056,1.7057,1.7058,1.7199,1.7201,0,0,0,0,0,0,1.7008,1.701,1.7061,1.7062,1.7017,1.7029,1.703,1.7045,1.7049,1.7047,1.7032,1.7028,1.7049,1.7052,1.7055,1.712,1.7056,1.7059,1.706,1.7196,1.7199,1.7201,0,0,0,0,0,0,1.7006,1.7013,1.7061,1.7036,1.7041,1.7032,1.7049,1.7046,1.7055,1.705,1.7048,1.7042,1.7047,1.7051,1.709,1.712,1.706,1.7062,1.7194,1.7197,1.72,1.7253,0,0,0,0,0,0,1.7004,1.7012,1.7035,1.7036,1.7042,1.7097,1.7051,1.7048,1.7059,1.7054,1.7059,1.7058,1.7046,1.7087,1.7093,1.7123,1.7064,1.7191,1.7195,1.7199,1.7248,1.7257,1.7265,0,0,0,0,0,1.7002,1.7049,1.7036,1.7042,1.707,1.7098,1.7102,1.7087,1.7062,1.7083,1.708,1.7058,1.7116,1.7091,1.7098,1.7129,1.7189,1.7194,1.7199,1.7245,1.7256,1.7265,0,0,0,0,0,0,1.7052,1.7049,1.7034,1.7084,1.7091,1.7091,1.7118,1.71,1.7115,1.711,1.7091,1.7092,1.7134,1.7136,1.7108,1.7183,1.7148,1.7155,1.7181,1.7191,1.72,1.7198,1.7066,0,0,0,0,0,1.7069,1.7092,1.7089,1.7132,1.7137,1.7127,1.7139,1.7127,1.7134,1.7137,1.7137,1.7145,1.7164,1.7178,1.7196,1.7249,1.7248,1.7273,1.7281,1.7288,1.7294,1.7319,1.733,1.7217,1.7217,1.7217,0,0,1.7103,1.7105,1.7121,1.7142,1.7147,1.7171,1.713,1.7158,1.7175,1.7141,1.7178,1.7178,1.7185,1.7231,1.725,1.7233,1.7325,1.7295,1.73,1.7302,1.7325,1.7336,1.7345,1.7221,1.722,1.722,0,0,1.7178,1.7183,1.7218,1.7223,1.7231,1.7223,1.7232,1.7234,1.7232,1.7268,1.7243,1.7263,1.7299,1.7304,1.7312,1.7387,1.7367,1.7394,1.7438,1.7463,1.7472,1.7479,1.7504,1.7514,1.74,1.74,1.74,0,1.7221,1.7256,1.7239,1.7268,1.7277,1.7247,1.7282,1.7288,1.7302,1.7308,1.7289,1.7331,1.7334,1.7379,1.7397,1.7405,1.7413,1.7393,1.7472,1.7479,1.7486,1.751,1.752,1.7403,1.7403,1.7402,1.7402,0,1.7307,1.7331,1.7359,1.7371,1.7384,1.7416,1.7404,1.7418,1.7405,1.7399,1.7435,1.7438,1.7455,1.7465,1.7453,1.7508,1.7497,1.7475,1.7439,1.75,1.7522,1.7531,1.7407,1.7406,1.7405,1.7405,0,0,1.7414,1.7415,1.7426,1.743,1.7435,1.7453,1.7483,1.75,1.7512,1.7522,1.7545,1.7575,1.7554,1.7563,1.7551,1.7573,1.763,1.7548,1.7547,1.7561,1.7689,1.7704,1.7715,1.7617,1.7618,1.762,1.7688,0,1.7487,1.7538,1.7522,1.7574,1.7595,1.7566,1.7592,1.7597,1.7593,1.761,1.7605,1.7626,1.7598,1.7602,1.7623,1.7619,1.7655,1.7614,1.7637,1.7639,1.7635,1.7727,1.7744,1.7808,1.7696,1.7698,1.7699,0,1.7578,1.759,1.7643,1.7642,1.7651,1.7674,1.7687,1.7704,1.7709,1.7704,1.7713,1.7696,1.7724,1.7689,1.7728,1.77,1.7709,1.7708,1.771,1.7711,1.7671,1.7728,1.7828,1.7837,1.7712,1.7711,1.771,0,1.7649,1.7679,1.7713,1.7718,1.7719,1.7735,1.7736,1.7739,1.7749,1.7761,1.7766,1.7781,1.7789,1.7801,1.7787,1.7763,1.7827,1.7791,1.7823,1.7823,1.7836,1.7836,1.7937,1.7845,1.7845,1.7845,1.7844,0,1.7731,1.7764,1.7745,1.7766,1.7802,1.7784,1.7819,1.7817,1.782,1.7839,1.7816,1.7835,1.7817,1.7834,1.7824,1.7856,1.7861,1.7857,1.7853,1.7858,1.7858,1.7862,1.7857,1.7847,1.7847,1.7846,1.7846,0,1.7816,1.7804,1.784,1.7837,1.7836,1.7863,1.786,1.7879,1.7872,1.7898,1.7903,1.7892,1.7911,1.7899,1.7919,1.7912,1.7953,1.7945,1.7951,1.7948,1.798,1.7976,1.8087,1.8099,1.8,1.8001,1.8002,0,1.7868,1.7892,1.7891,1.7902,1.7904,1.7923,1.7933,1.7916,1.7927,1.7933,1.7951,1.7968,1.798,1.8012,1.8006,1.802,1.8011,1.8048,1.8013,1.8016,1.8009,1.8007,1.8009,1.8055,1.8056,1.8057,1.8058,0,1.7961,1.7954,1.7968,1.798,1.7992,1.8001,1.8008,1.8019,1.8002,1.8015,1.8033,1.8043,1.8062,1.8078,1.809,1.8091,1.8071,1.8069,1.8077,1.8081,1.8083,1.8081,1.7969,1.8067,1.8066,1.8065,1.8065,1.8065,1.803,1.8049,1.8051,1.8067,1.807,1.8077,1.8094,1.8089,1.8104,1.8118,1.8107,1.8128,1.8131,1.8145,1.8148,1.8164,1.8149,1.816,1.8163,1.8166,1.8169,1.8082,1.8166,1.8166,1.8166,1.8166,1.8166,0,1.812,1.8119,1.8135,1.8144,1.8157,1.8137,1.8144,1.8155,1.8174,1.8179,1.8191,1.8211,1.8226,1.8221,1.8235,1.8249,1.824,1.8253,1.8251,1.8251,1.8183,1.8174,1.8259,1.8259,1.8259,1.8259,1.8259,1.8259,1.8169,1.82,1.8192,1.8224,1.8223,1.8243,1.8248,1.8254,1.8257,1.828,1.8293,1.8289,1.8289,1.8302,1.8315,1.8313,1.8318,1.8334,1.8329,1.8265,1.8256,1.8247,1.8238,1.8336,1.8336,1.8395,1.8395,1.8396]}]]